Dewpoint
59 58 57 57 57 57 58 57 57 57 56 56 57 57 56 55 54 53 52 50 49 48
59 59 58 58 58 58 58 59 57 56 56 56 57 57 56 56 55 54 53 52 51 49
58 59 59 58 58 58 58 58 58 57 56 56 57 57 57 56 56 55 54 53 52 51
57 58 58 58 59 59 59 58 59 59 58 57 57 57 57 56 56 56 55 55 54 53
53 56 57 58 58 59 59 59 59 59 58 58 57 57 57 57 57 57 56 56 55 54
45 46 46 47 47 48 49 49 51 53 57 57 57 57 57 57 57 57 57 57 57 56
39 40 42 43 44 45 46 46 47 46 47 44 43 43 44 46 47 48 50 52 54 56
37 37 37 38 39 40 41 42 42 43 43 42 40 39 40 40 44 44 45 45 45 46
35 35 35 36 36 37 37 37 38 38 39 38 37 38 38 38 40 40 40 40 40 41
32 33 33 34 34 34 34 35 35 35 35 36 35 36 36 36 37 37 37 37 37 36
31 31 32 32 32 32 32 32 32 32 32 33 32 34 34 35 34 35 34 35 35 35
31 31 31 30 30 30 29 29 29 30 30 29 30 33 34 34 33 33 33 33 34 34
30 30 29 29 29 29 28 28 28 28 28 28 29 31 33 35 34 33 33 33 34 34
29 29 29 29 28 28 27 27 26 26 26 27 27 28 31 33 32 34 33 33 33 33
Lifted_Index
0 1 1 1 1 0 0 -0 -0 0 0 1 1 2 2 2 2 2 2 3 3 3
0 0 0 1 1 1 0 -0 -0 -0 0 0 1 1 2 2 3 2 2 2 2 3
0 0 -0 0 0 0 -0 -0 -0 -0 0 0 1 1 1 2 2 2 2 2 2 2
-0 -0 -0 -0 0 0 0 -0 -0 0 0 0 1 1 1 1 2 2 2 2 2 2
-1 -1 -0 -0 0 0 0 0 0 0 0 1 1 0 1 1 1 1 1 2 2 2
-1 -1 -1 -0 0 1 0 0 -0 -0 0 1 1 1 1 1 1 1 2 2 2 2
-1 -1 -0 -0 0 1 1 1 0 0 1 1 1 1 1 1 1 2 2 2 2 2
-0 0 0 0 1 1 2 2 1 1 1 2 2 2 2 2 2 2 2 2 2 2
1 1 2 2 2 2 3 3 2 2 2 2 3 3 4 4 4 3 3 3 3 4
4 4 5 5 5 5 5 5 5 5 5 5 6 6 7 7 7 6 6 6 6 6
8 9 9 10 9 9 10 9 9 9 9 10 10 10 10 10 10 10 10 10 9 9
12 12 13 13 13 12 12 12 12 12 12 12 12 12 12 12 11 11 11 11 11 11
13 13 13 13 13 13 13 12 13 12 12 12 12 12 12 12 11 11 11 11 11 11
13 13 13 13 13 12 12 12 12 12 12 12 12 12 12 12 11 11 11 10 10 11